Tracking 19644 objects as of 26-Apr-2019
HD Live streaming from Space Station
objects crossing your sky now

THORAD AGENA D DEB

Track THORAD AGENA D DEB now!
10-day predictions


NORAD ID: 5696
Int'l Code: 1970-025MB
Perigee: 1,024.9 km
Apogee: 1,105.7 km
Inclination: 99.3 °
Period: 106.4 minutes
Semi major axis: 7436 km
RCS: 0.0101 m2 (small)
Launch date: April 8, 1970
Source: United States (US)
Launch site: AIR FORCE WESTERN TEST RANGE (AFWTR)

Note: This is SATELLITE DEBRIS
aabbcc
Your satellite tracking list
Your tracking list is empty




NASA's NSSDC Master Catalog

Two Line Element Set (TLE):
1  5696U 70025MB  19115.48893882 +.00000099 +00000-0 +20493-3 0  9996
2  5696 099.2870 306.0510 0054277 284.6600 129.4356 13.53842880413076
Source of the keplerian elements: AFSPC